Weather History for Christchurch, New Zealand

Change the Weather History Date:

Friday, November 4, 2011

  Actual Average Record
Temperature  
Mean Temperature 49 °F -  
Max Temperature 59 °F 62 °F 75 °F (1997)
Min Temperature 39 °F 43 °F 30 °F (2000)
Degree Days  
Heating Degree Days 16    
Moisture  
Dew Point 35 °F    
Average Humidity 58    
Maximum Humidity 82    
Minimum Humidity 38    
Precipitation  
Precipitation 0.00 in - - ()
Sea Level Pressure  
Sea Level Pressure 29.31 in    
Wind  
Wind Speed 8 mph ()    
Max Wind Speed 28 mph    
Max Gust Speed 39 mph    
Visibility 6.2 miles    
Events Rain    
Averages and records for this station are not official NWS values.
T = Trace of Precipitation, MM = Missing Value Source: Averaged Metar Reports

Daily Weather History Graph

Daily Weather History Graph

Search for Another Location

Airport:

Trip Planner

Search our weather history database for the weather conditions in past years. The results will help you decide how hot, cold, wet, or windy it might be!

Date:

Astronomy

Nov. 04, 2011 Rise Set
Actual Time 6:09 AM NZDT 8:18 PM NZDT
Civil Twilight 5:37 AM NZDT 8:49 PM NZDT
Nautical Twilight 4:59 AM NZDT 9:28 PM NZDT
Astronomical Twilight 4:16 AM NZDT 10:11 PM NZDT
Moon 1:57 PM NZDT (11/4) 2:45 AM NZDT (11/4)
Length of Visible Light 15h 12m
Length of Day
14h 09m
Waxing Gibbous, 63% of the Moon is Illuminated
Nov 4
Waxing Gibbous
Nov 11
Full
Nov 19
Last Quarter
Nov 25
New
Dec 2
First Quarter

Hourly Weather History & Observations

Time (NZDT) Temp. Windchill Dew Point Humidity Pressure Visibility Wind Dir Wind Speed Gust Speed Precip Events Conditions
12:00 AM 44.6 °F 43.1 °F 33.8 °F 66% 29.44 in - SSE 3.5 mph - N/A   Clear
1:00 AM 46.4 °F - 35.6 °F 66% 29.44 in - NE 2.3 mph - N/A   Clear
2:00 AM 48.2 °F - 33.8 °F 58% 29.42 in - NW 10.4 mph - N/A   Clear
3:00 AM 44.6 °F - 33.8 °F 66% 29.39 in - NE 1.2 mph - N/A   Clear
4:00 AM 44.6 °F - 33.8 °F 66% 29.39 in - East 1.2 mph - N/A   Clear
5:00 AM 39.2 °F - 32.0 °F 75% 29.39 in - West 1.2 mph - N/A   Clear
6:00 AM 39.2 °F - 33.8 °F 81% 29.36 in - SE 1.2 mph - N/A   Clear
7:00 AM 46.4 °F 44.3 °F 32.0 °F 57% 29.33 in - NNW 4.6 mph - N/A   Clear
8:00 AM 53.6 °F - 33.8 °F 47% 29.30 in - North 16.1 mph 27.6 mph N/A   Clear
9:00 AM 55.4 °F - 33.8 °F 44% 29.30 in - NNW 8.1 mph 20.7 mph N/A   Clear
10:00 AM 55.4 °F - 35.6 °F 47% 29.30 in 6.2 mi NW 18.4 mph - N/A Rain Rain Showers
11:00 AM 48.2 °F - 42.8 °F 82% 29.30 in 6.2 mi North 27.6 mph 39.1 mph N/A Rain Rain Showers
12:00 PM 51.8 °F - 44.6 °F 76% 29.24 in 6.2 mi North 17.3 mph - N/A   Partly Cloudy
1:00 PM 55.4 °F - 46.4 °F 72% 29.21 in 6.2 mi North 15.0 mph - N/A   Scattered Clouds
2:00 PM 57.2 °F - 44.6 °F 63% 29.21 in 6.2 mi NW 16.1 mph - N/A   Scattered Clouds
3:00 PM 59.0 °F - 41.0 °F 51% 29.18 in 6.2 mi NNW 11.5 mph - N/A   Partly Cloudy
4:00 PM 57.2 °F - 35.6 °F 44% 29.18 in 6.2 mi WNW 20.7 mph - N/A   Scattered Clouds
5:00 PM 57.2 °F - 39.2 °F 51% 29.21 in - West 13.8 mph - N/A   Clear
6:00 PM 53.6 °F - 28.4 °F 38% 29.24 in - West 21.9 mph 34.5 mph N/A   Clear
7:00 PM 51.8 °F - 32.0 °F 47% 29.24 in - WNW 18.4 mph - N/A   Clear
8:00 PM 48.2 °F - 28.4 °F 46% 29.30 in - WNW 19.6 mph - N/A   Clear
9:00 PM 46.4 °F 41.1 °F 28.4 °F 50% 29.33 in - NW 11.5 mph - N/A   Clear
10:00 PM 44.6 °F 40.2 °F 26.6 °F 49% 29.36 in - WNW 8.1 mph - N/A   Clear
11:00 PM 44.6 °F 39.2 °F 28.4 °F 53% 29.39 in - WNW 10.4 mph - N/A   Clear